This is the latest recevied weather packets stored in our database for station/object N2QKV-13. If no packets are shown the sender has not sent any weather packets the latest 10 day(s).
| Time | Temp. | Humidity | Pressure | Rain* | Wind** | Luminosity | Snow |
|---|---|---|---|---|---|---|---|
| 1777821904 | 12.22° C | 43% | 1012.4 hPa | 0 mm | - | - | - |
| 1777821604 | 12.22° C | 46% | 1012.4 hPa | 0 mm | - | - | - |
| 1777821303 | 12.78° C | 42% | 1012.4 hPa | 0 mm | - | - | - |
| 1777821003 | 13.33° C | 47% | 1012.5 hPa | 0 mm | - | - | - |
| 1777820704 | 12.22° C | 47% | 1012.4 hPa | 0 mm | - | - | - |
| 1777820403 | 12.78° C | 45% | 1012.4 hPa | 0 mm | - | - | - |
| 1777820104 | 12.22° C | 45% | 1012.6 hPa | 0 mm | - | - | - |
| 1777819804 | 12.22° C | 49% | 1012.5 hPa | 0 mm | - | - | - |
| 1777819503 | 12.22° C | 46% | 1012.5 hPa | 0 mm | - | - | - |
| 1777819204 | 12.78° C | 46% | 1012.5 hPa | 0 mm | - | - | - |
| 1777818903 | 12.78° C | 45% | 1012.5 hPa | 0 mm | - | - | - |
| 1777818604 | 12.22° C | 49% | 1012.6 hPa | 0 mm | - | - | - |
| 1777818303 | 12.78° C | 48% | 1012.5 hPa | 0 mm | - | - | - |
| 1777818004 | 12.22° C | 47% | 1012.5 hPa | 0 mm | - | - | - |
| 1777817704 | 12.22° C | 50% | 1012.4 hPa | 0 mm | - | - | - |
| 1777817404 | 11.67° C | 49% | 1012.6 hPa | 0 mm | - | - | - |
| 1777817104 | 11.67° C | 50% | 1012.5 hPa | 0 mm | - | - | - |
| 1777816804 | 11.67° C | 48% | 1012.4 hPa | 0 mm | - | - | - |
| 1777816503 | 11.67° C | 50% | 1012.5 hPa | 0 mm | - | - | - |
| 1777816204 | 11.67° C | 50% | 1012.5 hPa | 0 mm | - | - | - |
| 1777815904 | 11.11° C | 51% | 1012.4 hPa | 0 mm | - | - | - |
| 1777815604 | 11.11° C | 50% | 1012.4 hPa | 0 mm | - | - | - |
| 1777815304 | 11.11° C | 50% | 1012.4 hPa | 0 mm | - | - | - |
| 1777815003 | 11.11° C | 51% | 1012.4 hPa | 0 mm | - | - | - |
| 1777814704 | 11.11° C | 51% | 1012.3 hPa | 0 mm | - | - | - |
* Rain latest hour (hover to see other rain measurements)
** Current wind speed in m/s (hover to see current wind gust speed)